TimeGMT,TemperatureF,Dew PointF,Humidity,Sea Level PressureIn,VisibilityMPH,Wind Direction,Wind SpeedMPH,Gust SpeedMPH,PrecipitationIn,Events,Conditions,WindDirDegrees,DateUTC
12:00 AM,51,45,74,30.33,12,SSW,11.5,,,,Mostly Cloudy,210,2013-12-10 00:00:00
12:50 AM,50.0,44.6,82,30.30,6.2,South,8.1,-,N/A,,Mostly Cloudy,190,2013-12-10 00:50:00
1:50 AM,50.0,46.4,87,30.30,6.2,SSW,11.5,-,N/A,,Scattered Clouds,200,2013-12-10 01:50:00
2:50 AM,51.8,44.6,76,30.30,6.2,SSW,11.5,-,N/A,,Mostly Cloudy,200,2013-12-10 02:50:00
3:00 AM,51,45,74,30.33,12,SSW,11.5,,,,Mostly Cloudy,200,2013-12-10 03:00:00
3:50 AM,51.8,42.8,71,30.30,6.2,SSW,11.5,-,N/A,,Mostly Cloudy,200,2013-12-10 03:50:00
4:50 AM,51.8,42.8,71,30.30,6.2,SSW,11.5,25.3,N/A,,Mostly Cloudy,200,2013-12-10 04:50:00
5:50 AM,51.8,44.6,76,30.30,6.2,SSW,12.7,25.3,N/A,,Mostly Cloudy,200,2013-12-10 05:50:00
6:00 AM,51,44,70,30.33,12,SSW,12.7,,,,Mostly Cloudy,200,2013-12-10 06:00:00
6:50 AM,51.8,42.8,71,30.33,6.2,SSW,15.0,28.8,N/A,,Mostly Cloudy,210,2013-12-10 06:50:00
7:50 AM,51.8,42.8,71,30.33,6.2,SSW,12.7,26.5,N/A,,Overcast,200,2013-12-10 07:50:00
8:50 AM,51.8,44.6,76,30.33,6.2,South,11.5,-,N/A,,Haze,190,2013-12-10 08:50:00
9:00 AM,52,45,69,30.35,11,South,11.5,,,,Haze,190,2013-12-10 09:00:00
9:50 AM,51.8,46.4,82,30.33,6.2,SSW,11.5,-,N/A,,Haze,200,2013-12-10 09:50:00
10:50 AM,51.8,48.2,88,30.36,6.2,SSW,13.8,25.3,N/A,,Mostly Cloudy,200,2013-12-10 10:50:00
11:50 AM,53.6,48.2,82,30.36,6.2,SSW,11.5,-,N/A,,Haze,200,2013-12-10 11:50:00
12:00 PM,54,49,77,30.36,11,SSW,11.5,,,,Haze,200,2013-12-10 12:00:00
12:50 PM,53.6,50.0,88,30.33,6.2,South,13.8,25.3,N/A,,Haze,190,2013-12-10 12:50:00
1:50 PM,53.6,48.2,82,30.33,6.2,SSW,13.8,-,N/A,,Haze,200,2013-12-10 13:50:00
2:50 PM,51.8,50.0,94,30.33,6.2,South,11.5,-,N/A,,Haze,190,2013-12-10 14:50:00
3:00 PM,53,49,82,30.36,7,South,11.5,,,,Haze,190,2013-12-10 15:00:00
3:50 PM,51.8,48.2,88,30.36,6.2,South,10.4,-,N/A,,Haze,190,2013-12-10 15:50:00
4:50 PM,51.8,48.2,88,30.36,6.2,South,8.1,-,N/A,,Haze,180,2013-12-10 16:50:00
5:50 PM,51.8,48.2,88,30.36,6.2,South,6.9,-,N/A,,Overcast,180,2013-12-10 17:50:00
6:00 PM,51,48,84,30.37,9,South,6.9,,,,Haze,180,2013-12-10 18:00:00
6:50 PM,51.8,48.2,88,30.36,6.2,South,9.2,-,N/A,,Mostly Cloudy,170,2013-12-10 18:50:00
7:50 PM,51.8,48.2,88,30.36,6.2,SSE,9.2,-,N/A,,Overcast,160,2013-12-10 19:50:00
8:50 PM,50.0,46.4,87,30.36,6.2,SSE,8.1,-,N/A,,Overcast,160,2013-12-10 20:50:00
9:00 PM,51,46,78,30.38,9,SSE,8.1,,,,Haze,160,2013-12-10 21:00:00
9:50 PM,50.0,46.4,87,30.36,6.2,SSE,9.2,-,N/A,,Overcast,160,2013-12-10 21:50:00
10:50 PM,48.2,44.6,87,30.36,5.0,SSE,8.1,-,N/A,,Haze,160,2013-12-10 22:50:00
11:50 PM,48.2,46.4,93,30.33,3.7,SE,8.1,-,N/A,,Haze,140,2013-12-10 23:50:00